Location: Chrząstowo
(52.0654°N, 17.1290°E)
Time: 21:32:52
(UTC+01:00)

ISS - Pass Details

Date: 25 January 2019
Orbit: 403 x 411 km, 51.6° (Epoch: 22 February)

Event Time Altitude Azimuth Distance (km) Brightness Sun altitude
Rises 18:27:20 0° 227° (SW) 2,328 0.9 -18.4°
Reaches altitude 10° 18:29:32 10° 217° (SW) 1,472 -0.4 -18.7°
Enters shadow 18:32:13 31° 164° (SSE) 740 -2.6 -19.1°
